Retour au catalogue

CZ-6A DEB

ActifPO
NORAD 54470·DEBRIS·🇨🇳 China

Lancé Nov 11, 2022 depuis Taiyuan Satellite Launch Center

Loading…

Prochains Passages (prochaines 24 heures)

TLE

FraisSource: Space-Track

Époque: Sep 14, 2026, 02:14 UTC

1 54470U 22151GW  26257.09356582  .00006155  00000-0  10673-2 0  9997
2 54470  98.6249 319.8188 0071821  36.6098 323.9981 14.66943970201501

Suivez CZ-6A DEB en temps réel avec AllMySat

Download on the App Store